STARLINK-11588, 63319

Orbit data source: Space-Track

STARLINK-11588, 63319 is a payload satellite owned by SpaceX/Seattle (US) in LEO that was launched on Tue, 18 Mar 2025 UTC via an FALCON 9 launch vehicle from the Air Force Eastern Test Range (AFETR). Payload-class satellites include a variety of spacecraft equipped with specific instruments for various scientific and technological missions. These include communications satellites like Starlink; space stations such as the ISS; scientific satellites like the Hubble; Earth observation satellites from companies like Planet Labs, Umbra, and HawkEye 360; GPS; miniature CubeSats for education and research; and military/defense satellites.

Loading next visibility...
Identifier
63319, 2025-057N
Orbit
LEO
Country
Flag of USUS
Related business
Manufacturer
SpaceX/Seattle
Mission
Operational Commercial Communications
Bus & Motor
STARLINK V2MD, Unknown motor
Mass
960 kg wet, ~910 kg dry
Launch date (UTC)
2025-03-18 (7 months ago)
Launch vehicle
FALCON 9
Launch site
Air Force Eastern Test Range (AFETR)
Object type
Payload
Rocket body
Debris
Shape & HBR
Box + 2 Pan, 18.1 m
Radar Cross Section
36.964 m², Large (>1 m²)

Expand to show TLE details & history
Last TLE update: 12 hours ago

TLE from 12 hours ago
0 STARLINK-11588
1 63319U 25057N   25288.75107975  .00337528  00000-0  25015-2 0  9990
2 63319  42.9985  58.0705 0002271 355.8555   4.2294 15.71096246 34384
Epoch: 2025-10-15T18:01Z
TLE epoch observation values (Epoch: 2025-10-15T18:01:33.290Z)
Latitude
0.00002°
Longitude
123.16115°
Altitude
354.009 km
Speed
7.699 km/s
True Right ascension
03h 52m 16s
True Declination
0° 00' 00"
Sunlit
Object was in full shadow at epoch
Visualization orbit readout
Latitude
Unknown
Longitude
Unknown
Altitude
Unknown
Speed
Unknown
Apparent Right ascension
Unknown
Apparent Declination
Unknown
Sunlit
N/A
Visualization observer readout
Local Sidereal Time
00:41:38
Azimuth
Unknown
Elevation
Unknown
Doppler factor
Unknown
Orbital elements
Apogee altitude
359.275 km
Perigee altitude
356.215 km
Semi-major axis
6,735.882 km
Eccentricity
0.00023
Inclination
42.9985°
RAAN
58.0705°
Arg. of periapsis
355.8555°
True anomaly
4.23132°
Mean anomaly
4.2294°
Eccentric anomaly
4.23036°
Mean motion
3.92601 °/min
Orbital period
91.7 mins
BSTAR
0.0025015
Loading maneuver chart data...
Computing Atmospheric mass density...
Loading historical data...
Loading historical data...
Loading historical data...
Loading historical data...
Loading historical data...
Loading historical data...
Loading historical data...

Documentation

Showing up to 5 results
|